Погода Тегюльтя-Терде

Погода Тегюльтя-Терде : погода сейчас, прогноз погоды и архив. Всё, что Вы хотите узнать о погоде Тегюльтя-Терде!

Поиск расширенной информации на нашем сайте:

Другие новости

Новости СМИ2

Главная страница сайта

Новости сайта

03.07.2017

Напоминаем, что на нашем специализированном сайте Метеоцентр.Азия вы можете получить высокодетализированные автоматические прогнозы погоды по пунктам России, СНГ и мира в авиационном формате (включающие направление и скорость ветра, видимость, явления погоды, количество и форму облачности, нижнюю и верхнюю границу облачности).

Рекомендуем: предлагаются помещения сдам офис Бизнес центр Варшавка Sky у метро Чертановская

Погода Тегюльтя-Терде - сегодня

Время (UTC), дата Ветер
(°,м/с) 
Видим.   Явления Облачность Т
(°С)
Тd
(°С)
f(%) Тe
(°С)
Pmin
(гПа)
dP
(гПа)
Po
(мм)
O2
(г/м3)
Тmin Tmax R s Состояние
почвы
00 14.08.18 220 (ЮЗ) 20000 м    ясно 
+10.7 +7.7 82 +11  1019.5  0.7  749  289  +4.9        сухая 
03 14.08.18 050 (СВ) 20000 м    3/3 1000 м 
[Cu med, cong]
+22.2 +10.1 46 +24  1019.4  749  277           
06 14.08.18 тихо ()   20000 м    8/8 1000 м 
[Cu med, cong]
+24.1 +8.7 37 +24  1008.5  749  276           
09 14.08.18 350 (С) 20000 м    6/4 1000 м верхняя 
[Cu med, cong|Ci fib]
+24.4 +9.1 38 +24  1018.6  0.1  749  276           
12 14.08.18 240 (ЮЗ) 20000 м    3/0 верхняя 
[Ci fib]
+15.3 +13.3 88 +23  1019.9  0.7  750  283    +25.5       
15 14.08.18 тихо ()   20000 м    3/0 верхняя 
[Ci fib]
+9.1 +7.8 92 +9  1020.7  0.4  750  291           
18 14.08.18 250 (З) 20000 м    3/0 верхняя 
[Ci fib]
+6.8 +5.7 93 +8  1021.7  0.7  750  294           
21 14.08.18 260 (З) 20000 м    3/0 верхняя 
[Ci fib]
+4.8 +3.8 93 +6  1022.7  0.8  751  297           
00 15.08.18 230 (ЮЗ) 20000 м    ясно 
+14 +12.3 89 +19  1023.1  1.2  752  286  +4.7        сухая 
03 15.08.18 110 (В) 20000 м    4/0 верхняя 
[Ci fib]
+24.3 +12.7 48 +29  1021  -1.4  751  275           
06 15.08.18 220 (ЮЗ) 20000 м    8/6 1000 м верхняя 
[Sc|Ci fib]
+26.1 +11.6 40 +29  1019.3  -1.6  750  274           
09 15.08.18 100 (В) 20000 м    8/3 1000 м верхняя 
[St|Ci fib]
+25.7 +9.6 36 +26  1017  -2.3  748  274           
12 15.08.18 120 (ЮВ) 20000 м    6/0 верхняя 
[Ci fib]
+17.2 +14.1 82 +26  1017.1  -0.3  748  281    +26.8       
15 15.08.18 060 (СВ) 20000 м    6/0 верхняя 
[Sc diur, vesp|Ci fib]
+11.1 +8.9 86 +12  1017.6  748  288           
18 15.08.18 040 (СВ) 20000 м    6/0 верхняя 
[Ci fib]
+10.6 +9.4 92 +12  1016.7  -1  747  288           
21 15.08.18 тихо ()   20000 м    6/0 верхняя 
[Ci fib]
+9.3 +8.3 93 +9  1016.2  -0.6  747  289           
00 16.08.18 070 (В) 20000 м    9/0 верхняя 
[Ci fib]
+17.3 +9.5 60 +19  1014.6  -0.9  746  281  +9.2        сухая 
03 16.08.18 130 (ЮВ) 20000 м    8/0 верхняя 
[Ci fib]
+22.7 +13.4 56 +29  1011.1  -3  744  274           
06 16.08.18 080 (В) 20000 м    8/0 верхняя 
[Ci fib]
+25.3 +11.4 42 +29  1009.4  -1.3  742  272           
09 16.08.18 060 (СВ) 20000 м    10/0 верхняя 
[Cs]
+25.7 +12 42 +30  1008.2  -1.2  742  271           
12 16.08.18 070 (В) 20000 м    10/0 верхняя 
[Cs]
+18.6 +14.8 79 +28  1007.3  -1.4  740  276    +26.3       
15 16.08.18 тихо ()   20000 м    10/0 верхняя 
[Cs]
+15.3 +13.3 88 +22  1006.3  -1.1  740  280           
18 16.08.18 тихо ()   20000 м    ясно верхняя 
[Cs]
+12.5 +11 91 +15  1006.5  740  283           
21 16.08.18 тихо ()   20000 м    ясно верхняя 
[Cs]
+11.1 +10.1 94 +13  1006.5  740  285           
00 17.08.18 тихо ()   20000 м    10/0 средняя 
[As op]
+15.2 +13.2 88 +21  1005.9  -0.6  739  279  +11        сухая 
Время (UTC), дата Ветер
(°,м/с) 
Видим.   Явления Облачность Т
(°С)
Тd
(°С)
f(%) Тe
(°С)
Pmin
(гПа)
dP
(гПа)
Po
(мм)
O2
(г/м3)
Тmin Tmax R s Состояние
почвы

Для получения пояснительной информации подведите курсор к названию столбца.

ПОГОДА Тегюльтя-Терде - архив

Всё, что Вы хотите узнать о погоде Тегюльтя-Терде - удобно и подробно!

Выберите нужную дату (начиная с 1 января 2015* года) и нажмите кнопку "Найти".
Будут отображены архивные сводки погоды по пункту Тегюльтя-Терде, начиная с указанной даты.


Отображать данные в формате CSV (для использования в таблицах Excel)


Внимание! Наш архив погоды предназначен исключительно для личного некоммерческого использования в познавательных целях. Если Вам необходимы официальные справки о состоянии погоды (для производственных, юридических, коммерческих и т.п. целей), обращайтесь в органы Росгидромета.

*Примечание: данная дата относится к архиву по метеостанциям СССР (Россия, СНГ, Балтия).
Архив по метеостанциям Зарубежной Европы и Азии (кроме Китая) хранится 10 дней, по другим регионам земного шара (Китай, Африка, Америка, Австралия, Океания) - 1 день.

Тегюльтя-Терде - район местоположения метеостанции


Название, широта, долгота, высота метеостанции:
Тегюльтя-Терде 60.2°ш. 130.2°д. 171 м над ур. моря [Российская Федерация]

Дополнительная информация

В oтличие oт бoльшинства пoгoдных сайтoв мы публикуем пoдрoбную метеoинфoрмацию в детальнoм прoфессиoнальнoм фoрмате.

Характеристики температуры и влажнoсти вoздуха измеряются на высoте 2 м в тени вдали oт зданий и деревьев.
Скoрoсть ветра измеряется на высoте 10 м (на урoвне рoста челoвека скoрoсть ветра ниже в 1.5-2 раза). Если метеoстанция нахoдится в гoрoде или в лесу, тo скoрoсть ветра занижена на 2-4 м/с пo сравнению с oткрытым местoм. Скoрoсть ветра над акватoриями крупных рек и oзёр, а также на вершинах хoлмoв на 2-5 м/с выше, чем в oбычных услoвиях.
Атмoсфернoе давление в разных тoчках местнoсти мoжет значительнo oтличаться oт давления на метеoстанции, в зависимoсти oт услoвий рельефа (при пoдъёме на 10 м давление пoнижается примернo на 1 мм рт.ст.).